Salida, CO

2:20 PM MDT on June 26, 2017 (GMT -0600)
Salida

Weather History for KANK - May, 2013

Change the Weather History Date:

Tuesday, May 21, 2013

  Actual Average (KGUC) Record (KGUC)
Temperature  
Mean Temperature 52 °F -  
Max Temperature 68 °F 64 °F 80 °F (2005)
Min Temperature 35 °F 32 °F 28 °F (2017)
Degree Days  
Heating Degree Days 14    
Growing Degree Days 2 (Base 50)    
Moisture  
Dew Point 26 °F    
Average Humidity 43    
Maximum Humidity 81    
Minimum Humidity 13    
Precipitation  
Precipitation 0.00 in - - ()
Sea Level Pressure  
Sea Level Pressure 30.15 in    
Wind  
Wind Speed 7 mph (West)    
Max Wind Speed 21 mph    
Max Gust Speed 30 mph    
Visibility 10 miles    
Events      
Averages and records for this station are not official NWS values.
T = Trace of Precipitation, MM = Missing Value Source: NWS Daily Summary

Daily Weather History Graph

Daily Weather History Graph

Search for Another Location

Airport or City:

Trip Planner

Search our weather history database for the weather conditions in past years. The results will help you decide how hot, cold, wet, or windy it might be!

Date:

Astronomy

May. 21, 2013 Rise Set
Actual Time 5:47 AM MDT 8:14 PM MDT
Civil Twilight 5:17 AM MDT 8:44 PM MDT
Nautical Twilight 4:39 AM MDT 9:22 PM MDT
Astronomical Twilight 3:58 AM MDT 10:04 PM MDT
Moon 4:33 PM MDT (5/21) 3:14 AM MDT (5/21)
Length of Visible Light 15h 27m
Length of Day
14h 26m
Waxing Gibbous, 84% of the Moon is Illuminated
May 21
Waxing Gibbous
May 24
Full
May 31
Last Quarter
Jun 8
New
Jun 16
First Quarter

Hourly Weather History & Observations

Time (MDT) Temp. Windchill Dew Point Humidity Pressure Visibility Wind Dir Wind Speed Gust Speed Precip Events Conditions
12:15 AM 41.9 °F 38.2 °F 33.6 °F 72% 30.20 in 10.0 mi SW 5.8 mph - N/A   Scattered Clouds
12:35 AM 39.6 °F 35.4 °F 33.1 °F 78% 30.20 in 10.0 mi West 5.8 mph - N/A   Clear
12:55 AM 41.0 °F 34.7 °F 32.5 °F 72% 30.20 in 10.0 mi WNW 10.4 mph - N/A   Clear
1:15 AM 40.3 °F 36.3 °F 32.7 °F 74% 30.19 in 10.0 mi WNW 5.8 mph - N/A   Clear
1:35 AM 39.6 °F 34.7 °F 31.6 °F 73% 30.19 in 10.0 mi West 6.9 mph - N/A   Clear
1:55 AM 39.2 °F 34.2 °F 31.5 °F 74% 30.19 in 10.0 mi West 6.9 mph - N/A   Clear
2:15 AM 39.2 °F 34.2 °F 30.7 °F 72% 30.18 in 10.0 mi West 6.9 mph - N/A   Clear
2:35 AM 38.5 °F 32.7 °F 31.3 °F 75% 30.17 in 10.0 mi WSW 8.1 mph - N/A   Clear
2:55 AM 39.0 °F 35.7 °F 30.6 °F 72% 30.17 in 10.0 mi West 4.6 mph - N/A   Clear
3:15 AM 37.0 °F 32.4 °F 31.5 °F 80% 30.19 in 10.0 mi West 5.8 mph - N/A   Clear
3:35 AM 36.1 °F 33.5 °F 30.7 °F 81% 30.19 in 10.0 mi WSW 3.5 mph - N/A   Clear
3:55 AM 36.0 °F - 30.2 °F 80% 30.19 in 10.0 mi Calm Calm - N/A   Clear
4:15 AM 37.2 °F 33.6 °F 29.5 °F 74% 30.19 in 10.0 mi WNW 4.6 mph - N/A   Clear
4:35 AM 36.0 °F - 29.3 °F 77% 30.20 in 10.0 mi Calm Calm - N/A   Clear
4:55 AM 35.8 °F 30.9 °F 29.5 °F 78% 30.20 in 10.0 mi NW 5.8 mph - N/A   Clear
5:15 AM 36.9 °F 29.6 °F 29.5 °F 75% 30.21 in 10.0 mi WNW 10.4 mph - N/A   Clear
5:35 AM 36.5 °F 29.7 °F 28.6 °F 73% 30.21 in 10.0 mi West 9.2 mph - N/A   Clear
5:55 AM 36.3 °F 31.6 °F 28.8 °F 74% 30.22 in 10.0 mi WNW 5.8 mph - N/A   Clear
6:15 AM 35.2 °F - 30.0 °F 81% 30.23 in 10.0 mi Calm Calm - N/A   Clear
6:35 AM 36.3 °F - 30.6 °F 80% 30.24 in 10.0 mi Calm Calm - N/A   Clear
6:55 AM 39.4 °F - 31.5 °F 73% 30.24 in 10.0 mi Calm Calm - N/A   Clear
7:15 AM 39.7 °F - 31.1 °F 71% 30.25 in 10.0 mi Calm Calm - N/A   Clear
7:35 AM 40.5 °F - 31.5 °F 70% 30.24 in 10.0 mi Calm Calm - N/A   Clear
7:55 AM 43.5 °F 41.9 °F 32.2 °F 64% 30.24 in 10.0 mi SSW 3.5 mph - N/A   Clear
8:15 AM 45.7 °F 42.7 °F 32.0 °F 59% 30.22 in 10.0 mi South 5.8 mph - N/A   Clear
8:35 AM 47.7 °F - 32.0 °F 55% 30.20 in 10.0 mi ENE 4.6 mph - N/A   Clear
8:55 AM 49.1 °F - 32.5 °F 53% 30.20 in 10.0 mi NNE 5.8 mph - N/A   Clear
9:15 AM 50.7 °F - 31.1 °F 47% 30.20 in 10.0 mi NNE 5.8 mph - N/A   Clear
9:35 AM 52.7 °F - 28.9 °F 40% 30.19 in 10.0 mi NNE 6.9 mph - N/A   Clear
9:55 AM 55.2 °F - 24.8 °F 31% 30.19 in 10.0 mi NE 3.5 mph - N/A   Clear
10:15 AM 56.3 °F - 24.4 °F 29% 30.17 in 10.0 mi NE 4.6 mph - N/A   Clear
10:35 AM 55.6 °F - 23.4 °F 29% 30.17 in 10.0 mi Calm Calm - N/A   Scattered Clouds
10:55 AM 57.7 °F - 24.1 °F 27% 30.17 in 10.0 mi Calm Calm - N/A   Mostly Cloudy
11:15 AM 58.6 °F - 25.5 °F 28% 30.15 in 10.0 mi Calm Calm - N/A   Scattered Clouds
11:35 AM 59.0 °F - 25.3 °F 28% 30.15 in 10.0 mi Calm Calm - N/A   Scattered Clouds
11:55 AM 60.4 °F - 26.2 °F 27% 30.14 in 10.0 mi WSW 5.8 mph - N/A   Scattered Clouds
12:15 PM 61.3 °F - 25.0 °F 25% 30.13 in 10.0 mi NW 3.5 mph - N/A   Mostly Cloudy
12:35 PM 64.0 °F - 25.9 °F 24% 30.12 in 10.0 mi WSW 8.1 mph 18.4 mph N/A   Mostly Cloudy
12:55 PM 64.0 °F - 26.2 °F 24% 30.12 in 10.0 mi West 12.7 mph 21.9 mph N/A   Mostly Cloudy
1:15 PM 63.0 °F - 25.2 °F 24% 30.11 in 10.0 mi WSW 13.8 mph 24.2 mph N/A   Mostly Cloudy
1:35 PM 63.0 °F - 25.0 °F 24% 30.11 in 10.0 mi West 15.0 mph 29.9 mph N/A   Mostly Cloudy
1:55 PM 66.9 °F - 23.4 °F 19% 30.10 in 10.0 mi WNW 17.3 mph 25.3 mph N/A   Scattered Clouds
2:15 PM 66.0 °F - 21.9 °F 19% 30.10 in 10.0 mi West 13.8 mph 20.7 mph N/A   Clear
2:35 PM 66.6 °F - 21.4 °F 18% 30.09 in 10.0 mi WSW 13.8 mph 24.2 mph N/A   Scattered Clouds
2:55 PM 68.5 °F - 19.2 °F 15% 30.09 in 10.0 mi West 16.1 mph 26.5 mph N/A   Mostly Cloudy
3:15 PM 68.0 °F - 16.7 °F 14% 30.09 in 10.0 mi WSW 16.1 mph 26.5 mph N/A   Scattered Clouds
3:35 PM 66.7 °F - 15.4 °F 14% 30.08 in 10.0 mi WNW 16.1 mph - N/A   Scattered Clouds
3:55 PM 67.3 °F - 14.2 °F 13% 30.07 in 10.0 mi WNW 15.0 mph 24.2 mph N/A   Scattered Clouds
4:15 PM 68.9 °F - 14.9 °F 13% 30.07 in 10.0 mi WNW 20.7 mph 25.3 mph N/A   Mostly Cloudy
4:35 PM 66.2 °F - 16.3 °F 15% 30.07 in 10.0 mi West 9.2 mph 20.7 mph N/A   Scattered Clouds
4:55 PM 65.1 °F - 18.0 °F 16% 30.07 in 10.0 mi WNW 11.5 mph 20.7 mph N/A   Scattered Clouds
5:15 PM 68.0 °F - 18.1 °F 15% 30.07 in 10.0 mi West 16.1 mph 21.9 mph N/A   Mostly Cloudy
5:35 PM 67.3 °F - 18.3 °F 15% 30.07 in 10.0 mi West 12.7 mph 19.6 mph N/A   Mostly Cloudy
5:55 PM 67.8 °F - 16.9 °F 14% 30.07 in 10.0 mi WNW 16.1 mph 20.7 mph N/A   Mostly Cloudy
6:15 PM 66.7 °F - 17.2 °F 15% 30.07 in 10.0 mi WNW 10.4 mph - N/A   Scattered Clouds
6:35 PM 65.3 °F - 18.3 °F 16% 30.07 in 10.0 mi NW 10.4 mph 18.4 mph N/A   Scattered Clouds
6:55 PM 65.3 °F - 19.8 °F 18% 30.08 in 10.0 mi West 10.4 mph 18.4 mph N/A   Scattered Clouds
7:15 PM 64.4 °F - 20.3 °F 18% 30.09 in 10.0 mi West 8.1 mph 18.4 mph N/A   Scattered Clouds
7:35 PM 63.0 °F - 19.8 °F 19% 30.09 in 10.0 mi West 6.9 mph - N/A   Mostly Cloudy
7:55 PM 61.7 °F - 19.9 °F 20% 30.10 in 10.0 mi West 11.5 mph - N/A   Scattered Clouds
8:15 PM 60.3 °F - 20.3 °F 21% 30.10 in 10.0 mi WNW 5.8 mph - N/A   Clear
8:35 PM 55.8 °F - 22.8 °F 28% 30.11 in 10.0 mi West 5.8 mph - N/A   Clear
8:55 PM 54.3 °F - 23.4 °F 30% 30.12 in 10.0 mi WNW 6.9 mph - N/A   Clear
9:15 PM 52.5 °F - 24.3 °F 33% 30.12 in 10.0 mi WSW 10.4 mph - N/A   Clear
9:35 PM 51.6 °F - 24.8 °F 35% 30.13 in 10.0 mi WSW 8.1 mph - N/A   Clear
9:55 PM 50.9 °F - 25.9 °F 38% 30.14 in 10.0 mi West 10.4 mph - N/A   Mostly Cloudy
10:15 PM 52.2 °F - 25.3 °F 35% 30.14 in 10.0 mi WSW 10.4 mph - N/A   Overcast
10:35 PM 52.2 °F - 25.0 °F 35% 30.15 in 10.0 mi WSW 12.7 mph - N/A   Overcast
10:55 PM 50.9 °F - 26.1 °F 38% 30.14 in 10.0 mi WSW 9.2 mph - N/A   Mostly Cloudy
11:15 PM 50.0 °F - 25.3 °F 38% 30.15 in 10.0 mi WSW 8.1 mph - N/A   Scattered Clouds
11:35 PM 49.1 °F - 25.9 °F 40% 30.15 in 10.0 mi WSW 5.8 mph - N/A   Clear
11:55 PM 48.7 °F - 25.7 °F 41% 30.14 in 10.0 mi SSW 3.5 mph - N/A   Clear